Tracking 30696 objects as of 15-Jun-2025
HD Live streaming from Space Station
objects crossing your sky now

PORCUPINE 1

Track PORCUPINE 1 now!
10-day predictions
PORCUPINE 1 is classified as:


NORAD ID: 1272
Int'l Code: 1965-016H
Perigee: 902.2 km
Apogee: 938.0 km
Inclination: 70.1 °
Period: 103.3 minutes
Semi major axis: 7291 km
RCS: 0.248 m2 (medium)
Launch date: March 9, 1965
Source: United States (US)
Launch site: AIR FORCE WESTERN TEST RANGE (AFWTR)
Your satellite tracking list
Your tracking list is empty




NASA's NSSDC Master Catalog

Two Line Element Set (TLE):
1 01272U 65016H   25165.74920711  .00000022  00000-0  55894-4 0  9999
2 01272  70.0805 310.2013 0024550 247.0928 112.7586 13.94483972 65159
Source of the keplerian elements: AFSPC